Springfield, CO

11:01 AM MDT on April 20, 2018 (GMT -0600)
Springfield

Weather History for KSPD - November, 2011

Change the Weather History Date:

Thursday, November 3, 2011

  Actual Average Record
Temperature  
Mean Temperature 38 °F -  
Max Temperature 56 °F 63 °F 81 °F (2013)
Min Temperature 19 °F 31 °F 1 °F (2013)
Degree Days  
Heating Degree Days 27 18  
Month to date heating degree days 71 53  
Since 1 July heating degree days 433 498  
Cooling Degree Days 0 0  
Month to date cooling degree days 0 0  
Year to date cooling degree days 1530 1028  
Moisture  
Dew Point 21 °F    
Average Humidity 59    
Maximum Humidity 92    
Minimum Humidity 26    
Precipitation  
Precipitation 0.00 in 0.02 in 0.03 in (2003)
Month to date precipitation 0.12 0.07  
Year to date precipitation 4.92  
Sea Level Pressure  
Sea Level Pressure 30.27 in    
Wind  
Wind Speed 11 mph (SW)    
Max Wind Speed 22 mph    
Max Gust Speed 26 mph    
T = Trace of Precipitation, MM = Missing Value Source: NWS Daily Summary

Daily Weather History Graph

Daily Weather History Graph

Search for Another Location

Airport or City:

Astronomy

Nov. 03, 2011 Rise Set
Actual Time 7:16 AM MDT 5:50 PM MDT
Civil Twilight 6:49 AM MDT 6:17 PM MDT
Nautical Twilight 6:18 AM MDT 6:48 PM MDT
Astronomical Twilight 5:48 AM MDT 7:19 PM MDT
Moon 2:07 PM MDT (11/3) 12:39 AM MDT (11/3)
Length of Visible Light 11h 28m
Length of Day
10h 33m
First Quarter, 61% of the Moon is Illuminated
Nov 3
First Quarter
Nov 10
Full
Nov 18
Last Quarter
Nov 24
New
Dec 2
First Quarter

Hourly Weather History & Observations

Time (MDT) Temp. Windchill Dew Point Humidity Pressure Visibility Wind Dir Wind Speed Gust Speed Precip Events Conditions
12:56 AM 23.0 °F 13.1 °F 19.0 °F 85% 30.48 in - NW 9.2 mph - N/A   Unknown
1:56 AM 21.9 °F 11.7 °F 18.0 °F 85% 30.47 in - NW 9.2 mph - N/A   Unknown
2:56 AM 21.9 °F 12.5 °F 19.0 °F 89% 30.46 in - NW 8.1 mph - N/A   Unknown
3:56 AM 21.0 °F 10.6 °F 17.1 °F 85% 30.44 in - NW 9.2 mph - N/A   Unknown
4:56 AM 21.0 °F 10.6 °F 16.0 °F 81% 30.43 in - NW 9.2 mph - N/A   Unknown
5:56 AM 21.9 °F - 15.1 °F 75% 30.43 in - Calm Calm - N/A   Unknown
6:56 AM 19.9 °F 10.1 °F 14.0 °F 78% 30.43 in - West 8.1 mph - N/A   Unknown
7:56 AM 24.1 °F 19.7 °F 16.0 °F 71% 30.43 in - WNW 3.5 mph - N/A   Unknown
8:56 AM 32.0 °F 27.5 °F 23.0 °F 69% 30.40 in - WSW 4.6 mph - N/A   Unknown
9:56 AM 37.0 °F 34.5 °F 27.0 °F 67% 30.36 in - South 3.5 mph - N/A   Unknown
10:56 AM 42.1 °F 36.6 °F 27.0 °F 55% 30.34 in - South 9.2 mph - N/A   Unknown
11:56 AM 46.0 °F 40.6 °F 23.0 °F 40% 30.30 in - South 11.5 mph - N/A   Unknown
12:56 PM 50.0 °F - 21.9 °F 33% 30.25 in - South 10.4 mph - N/A   Unknown
1:56 PM 51.1 °F - 21.0 °F 31% 30.21 in - South 13.8 mph - N/A   Unknown
2:56 PM 54.0 °F - 23.0 °F 30% 30.16 in - South 17.3 mph 26.5 mph N/A   Unknown
3:56 PM 55.9 °F - 21.0 °F 26% 30.14 in - South 16.1 mph 26.5 mph N/A   Unknown
4:56 PM 54.0 °F - 19.9 °F 26% 30.13 in - South 18.4 mph 25.3 mph N/A   Unknown
5:56 PM 46.9 °F - 21.0 °F 36% 30.14 in - South 15.0 mph - N/A   Unknown
6:56 PM 43.0 °F 35.1 °F 23.0 °F 45% 30.14 in - South 17.3 mph - N/A   Unknown
7:56 PM 39.0 °F 31.0 °F 23.0 °F 53% 30.13 in - South 13.8 mph - N/A   Unknown
8:56 PM 39.0 °F 29.9 °F 23.0 °F 53% 30.10 in - SSW 17.3 mph - N/A   Unknown
9:56 PM 36.0 °F 28.5 °F 21.9 °F 57% 30.09 in - South 10.4 mph - N/A   Unknown
10:56 PM 36.0 °F 26.3 °F 21.9 °F 57% 30.05 in - SSW 16.1 mph - N/A   Unknown
11:56 PM 36.0 °F 26.7 °F 21.0 °F 55% 30.01 in - SSW 15.0 mph - N/A   Unknown